Hourly Data Report for October 10, 2017

All times are specified in Local Standard Time (LST). Add 1 hour to adjust for Daylight Saving Time where and when it is observed.

ST. PETERS
PRINCE EDWARD ISLAND

46°27'01.000" N
62°34'33.000" W
29.70 m
8300562
71310
ZSP

Download Data

Hourly Data (October 2017)
Hourly Data Report for October 10, 2017
Temp Definition
°C
Dew Point Temp Definition
°C
Rel Hum Definition
%
Wind Dir Definition
10's deg

Wind Spd Definition
km/h
Visibility Definition
km
Stn Press Definition
kPa
Hmdx Definition


Wind Chill Definition


Weather Definition


TIME
00:00 16.7 15.9 95 16 6   101.13     LegendNANA
01:00 17.0 16.2 95 16 8   101.06     LegendNANA
02:00 16.9 16.2 95 16 9   101.02     LegendNANA
03:00 16.9 16.2 96 16 8   100.94     LegendNANA
04:00 17.3 16.7 96 16 12   100.85     LegendNANA
05:00 17.4 16.8 96 15 13   100.73     LegendNANA
06:00 18.1 17.4 96 18 24   100.57     LegendNANA
07:00 18.3 17.6 96 15 16   100.59     LegendNANA
08:00 18.2 17.5 96 14 14   100.51     LegendNANA
09:00 18.2 17.5 96 14 14   100.43     LegendNANA
10:00 18.2 17.4 95 14 15   100.38     LegendNANA
11:00 20.1 18.8 92 17 10   100.32 27   LegendNANA
12:00 20.8 18.6 87 23 14   100.26 27   LegendNANA
13:00 20.6 18.6 88 27 18   100.25 27   LegendNANA
14:00 19.2 17.6 91 29 19   100.31     LegendNANA
15:00 16.6 15.7 95 29 21   100.41     LegendNANA
16:00 15.5 14.8 96 31 17   100.46     LegendNANA
17:00 15.2 14.5 95 30 17   100.51     LegendNANA
18:00 14.6 13.9 96 30 18   100.62     LegendNANA
19:00 14.2 13.7 96 31 14   100.68     LegendNANA
20:00 13.6 13.1 97 28 10   100.72     LegendNANA
21:00 13.8 13.2 97 33 9   100.80     LegendNANA
22:00 13.4 12.8 96 31 5   100.84     LegendNANA
23:00 13.2 12.7 96 31 5   100.88     LegendNANA

Notes on Data Quality.

Legend

  • E = Estimated
  • M = Missing
  • NA = Not Available
  • ‡ = Partner data that is not subject to review by the National Climate Archives
Date modified: